Regional Weather Roundup
Issued by NWS

Home | Current Version | Previous Version | Text Only | Print | Product List | Glossary Off
Versions: 1 2 3 4 5 6 7 8 9 10 11 12 13 14 15 16 17 18 19 20 21 22 23 24 25 26 27 28 29 30 31 32 33 34 35 36 37 38 39 40 41 42 43 44 45 46 47 48 49 50

000
ASUS43 KLOT 201810
RWRIL

ILLINOIS REGIONAL WEATHER ROUNDUP
NATIONAL WEATHER SERVICE CHICAGO/ROMEOVILLE IL
1200 PM CST SAT DEC 20 2014

NOTE: "FAIR" INDICATES FEW OR NO CLOUDS BELOW 12,000 FEET WITH NO
SIGNIFICANT WEATHER AND/OR OBSTRUCTIONS TO VISIBILITY.

* THESE STATIONS ARE NOT UNDER NWS QUALITY CONTROL. THEY ALSO MAY NOT
  REPORT WEATHER SUCH AS PRECIPITATION OR FOG.

ILZ001-002-007-009-015-016-024-201900-
NORTHWEST ILLINOIS

CITY           SKY/WX    TMP DP  RH WIND       PRES   REMARKS
MOLINE         CLOUDY    33  26  75 SE7       30.23F HAZE    WCI  27
6HR MIN TEMP:  29; 6HR MAX TEMP:  33;

STERLING*      CLOUDY    30  25  80 SE6       30.26F WCI  24
SAVANNA*       CLOUDY    32  26  78 SE7       30.25F WCI  26
$$

ILZ003-004-008-010-011-017-018-201900-
NORTH CENTRAL ILLINOIS

CITY           SKY/WX    TMP DP  RH WIND       PRES   REMARKS
ROCKFORD       LGT SNOW  30  26  85 S6        30.28F FOG     WCI  24
6HR MIN TEMP:  27; 6HR MAX TEMP:  30; 6HR PCP: TRACE;

FREEPORT*      CLOUDY    29  25  85 SE6       30.26F FOG     WCI  23
ROCHELLE*      CLOUDY    29  26  86 S5        30.26F FOG     WCI  24
DE KALB*       CLOUDY    28  25  87 S7        30.26F FOG     WCI  21
PERU*          CLOUDY    32  28  83 S5        30.27F HAZE    WCI  27
$$

ILZ005-006-012>014-019>023-201900-
NORTHEAST ILLINOIS

CITY           SKY/WX    TMP DP  RH WIND       PRES   REMARKS
CHICAGO-OHARE  CLOUDY    31  23  72 S8        30.26F WCI  23
6HR MIN TEMP:  29; 6HR MAX TEMP:  31;

CHICAGO-MIDWAY CLOUDY    34  25  69 SW9       30.27F WCI  27
6HR MIN TEMP:  32; 6HR MAX TEMP:  34; 6HR PCP: TRACE;

AURORA         CLOUDY    31  24  75 SW6       30.27F HAZE    WCI  25
6HR MIN TEMP:  27; 6HR MAX TEMP:  31;

LANSING*       CLOUDY    33  27  77 S7        30.28F WCI  27
JOLIET*        CLOUDY    32  25  76 SW7       30.27F WCI  26
WAUKEGAN       CLOUDY    31  23  72 SW7       30.25F WCI  24
6HR MIN TEMP:  27; 6HR MAX TEMP:  31;

DUPAGE AIRPORT CLOUDY    31  24  75 S7        30.25F WCI  24
6HR MIN TEMP:  28; 6HR MAX TEMP:  31;

KANKAKEE*      CLOUDY    33  27  79 S6        30.28F WCI  28
WHEELING       CLOUDY    32  23  69 S9        30.27F WCI  24
6HR MIN TEMP:  28; 6HR MAX TEMP:  32;

MORRIS*        CLOUDY    32  28  85 S3        30.27F
ROMEOVILLE*    CLOUDY    32  26  80 SW5       30.27F WCI  27
NORTHERLY ISL    N/A     32  24  73 S9          N/A  WCI  24
$$

LMZ740>746-201900-
SOUTHERN LAKE MICHIGAN

STATION/POSITION SKY/WX   TEMP    WIND        PRES    VSBY  WAVE
                          AIR SEA DIR/SP/G                  HT/PER
                          (F)     (DEG/KT/KT) (MB)    (MI)  (FT/S)
WAUKEGAN HARBOR            31     210/  7/ 11   N/A
HARRISON CRIB              32     200/ 12/ 14   N/A
BURNHAM HARBOR             32     180/  7/ 11   N/A
CALUMET HARBOR             32     190/  5/  8 1023.9F
$$

ILZ025>027-034>036-040-047-049-050-058-095>099-201900-
WEST-CENTRAL ILLINOIS

CITY           SKY/WX    TMP DP  RH WIND       PRES   REMARKS
QUINCY         CLOUDY    36  31  82 S8        30.22F HAZE    WCI  30
GALESBURG*     CLOUDY    33  29  84 SE7       30.23F WCI  27
MACOMB*        CLOUDY    34  30  86 SE6       30.26F FOG     WCI  29
JACKSONVILLE*  CLOUDY    39  32  75 S5        30.24F
PITTSFIELD*    CLOUDY    37  32  83 S5        30.24F WCI  33
$$

ILZ028>032-037-038-041>044-048-051>054-059>061-201900-
CENTRAL ILLINOIS

CITY           SKY/WX    TMP DP  RH WIND       PRES   REMARKS
PONTIAC        CLOUDY    34  28  79 S8        30.28F WCI  27
BLOOMINGTON    CLOUDY    33  27  79 S10       30.26F WCI  25
DECATUR        CLOUDY    34  28  79 S8        30.27F WCI  27
PEORIA         CLOUDY    34  26  72 SE6       30.26F WCI  29
6HR MIN TEMP:  29; 6HR MAX TEMP:  35;

LACON*         CLOUDY    32  26  76 S7        30.26F WCI  26
LINCOLN*       CLOUDY    35  29  81 S5        30.27F WCI  31
SPRINGFIELD    CLOUDY    37  28  70 SE8       30.26F WCI  31
6HR MIN TEMP:  32; 6HR MAX TEMP:  37;

TAYLORVILLE    CLOUDY    34  30  86 SE6       30.26F WCI  29
$$

ILZ033-039-045-046-055>057-062-063-201900-
EAST-CENTRAL ILLINOIS

CITY           SKY/WX    TMP DP  RH WIND       PRES   REMARKS
CHAMPAIGN      CLOUDY    33  26  75 S9        30.27F WCI  25
DANVILLE*      PTSUNNY   33  24  70 S7        30.25F WCI  27
RANTOUL*       CLOUDY    35  28  77 S8        30.26F WCI  28
MATTOON        CLOUDY    33  26  75 S5        30.27F WCI  29
PARIS*         CLOUDY    34  29  81 CALM      30.29F
$$

ILZ079-100>102-201900-
SOUTHWEST ILLINOIS

CITY           SKY/WX    TMP DP  RH WIND       PRES   REMARKS
ALTON          CLOUDY    37  30  75 S7        30.26F WCI  32
BELLEVILLE     CLOUDY    39  32  75 VRB2      30.25F
CAHOKIA*       CLOUDY    40  33  76 CALM      30.26F
SPARTA*        CLOUDY    38  32  78 CALM      30.27F
$$

ILZ064>066-069>071-074>076-080>082-084>086-088>090-092>094-201900-
SOUTH-CENTRAL ILLINOIS

CITY           SKY/WX    TMP DP  RH WIND       PRES   REMARKS
CARBONDALE     CLOUDY    40  29  64 S3        30.27F
6HR MIN TEMP:  33; 6HR MAX TEMP:  40;

CAIRO*         CLOUDY    42  31  64 E3        30.28F
EFFINGHAM*     CLOUDY    35  26  70 CALM      30.30F
MARION         CLOUDY    41  32  70 E7        30.29F
MT. VERNON     CLOUDY    37  27  65 CALM      30.28F
CENTRALIA*     PTSUNNY   38  28  67 E3        30.27F
SALEM*         CLOUDY    39  30  72 E6        30.27F WCI  34
METROPOLIS*    CLOUDY    40  30  67 NE5       30.27F
$$

ILZ067-068-072-073-078-083-087-091-201900-
SOUTHEAST ILLINOIS

CITY           SKY/WX    TMP DP  RH WIND       PRES   REMARKS
LAWRENCEVILLE  CLOUDY    35  27  72 VRB3      30.29F
FLORA*         SUNNY     34  28  78 E3        30.29F
FAIRFIELD*     CLOUDY    35  26  71 CALM      30.28F
HARRISBURG*    CLOUDY    37  29  73 CALM      30.30F
ROBINSON*      CLOUDY    35  27  74 CALM      30.31F
CARMI*         CLOUDY    38  31  75 NE3       30.29F
$$

ABBREVIATIONS USED IN REMARKS
   TC - TEMPERATURE IN CELSIUS
  WCI - WIND CHILL INDEX
   HX - HEAT INDEX
  VSB - VISIBILITY
$$



USA.gov is the U.S. government's official web portal to all federal, state and local government web resources and services.